Wetterdaten: Woche 17.11.14 - 23.11.14 (KW47)
Datum Zeit Temperatur Luftfeuchte Luftdruck Niederschlag Windrichtung Sonnenschein Solar Wind
17.11.2014 00:00 4,5 C 97 % 1003,7 hPa 0,0 l/m NW 0,00 h 0 W/m 3,9 km/h (1 Bft)
17.11.2014 01:00 4,1 C 97 % 1003,9 hPa 0,0 l/m NW 0,00 h 0 W/m 2,9 km/h (1 Bft)
17.11.2014 02:00 3,7 C 97 % 1003,9 hPa 0,0 l/m NW 0,00 h 0 W/m 2,7 km/h (1 Bft)
17.11.2014 03:00 3,1 C 97 % 1003,7 hPa 0,0 l/m N 0,00 h 0 W/m 0,7 km/h (0 Bft)
17.11.2014 04:00 2,6 C 97 % 1003,6 hPa 0,0 l/m NW 0,00 h 0 W/m 3,5 km/h (1 Bft)
17.11.2014 05:00 2,9 C 98 % 1003,7 hPa 0,0 l/m N 0,00 h 0 W/m 1,2 km/h (1 Bft)
17.11.2014 06:00 3,1 C 98 % 1003,6 hPa 0,0 l/m N 0,00 h 0 W/m 1,2 km/h (1 Bft)
17.11.2014 07:00 3,0 C 98 % 1004,0 hPa 0,0 l/m NW 0,00 h 6 W/m 3,6 km/h (1 Bft)
17.11.2014 08:00 2,8 C 98 % 1004,7 hPa 0,2 l/m NW 0,00 h 18 W/m 1,7 km/h (1 Bft)
17.11.2014 09:00 2,9 C 98 % 1004,8 hPa 0,0 l/m N 0,00 h 27 W/m 1,7 km/h (1 Bft)
17.11.2014 10:00 3,2 C 99 % 1004,9 hPa 0,0 l/m N 0,00 h 26 W/m 0,4 km/h (0 Bft)
17.11.2014 11:00 3,5 C 99 % 1004,9 hPa 0,0 l/m N 0,00 h 44 W/m 0,0 km/h (0 Bft)
17.11.2014 12:00 4,0 C 99 % 1004,2 hPa 0,0 l/m NW 0,00 h 41 W/m 2,0 km/h (1 Bft)
17.11.2014 13:00 4,2 C 99 % 1004,0 hPa 0,0 l/m NW 0,00 h 25 W/m 1,9 km/h (1 Bft)
17.11.2014 14:00 4,2 C 99 % 1004,0 hPa 0,0 l/m NW 0,00 h 21 W/m 3,7 km/h (1 Bft)
17.11.2014 15:00 4,2 C 99 % 1004,0 hPa 0,0 l/m N-NW 0,00 h 12 W/m 4,8 km/h (1 Bft)
17.11.2014 16:00 4,1 C 99 % 1004,2 hPa 0,0 l/m N-NW 0,00 h 6 W/m 3,2 km/h (1 Bft)
17.11.2014 17:00 4,2 C 99 % 1004,5 hPa 0,0 l/m N-NO 0,00 h 0 W/m 8,7 km/h (2 Bft)
17.11.2014 18:00 4,1 C 99 % 1004,8 hPa 0,0 l/m N-NO 0,00 h 0 W/m 7,4 km/h (2 Bft)
17.11.2014 19:00 3,8 C 99 % 1004,9 hPa 0,0 l/m NO 0,00 h 0 W/m 7,6 km/h (2 Bft)
17.11.2014 20:00 3,7 C 99 % 1005,0 hPa 0,0 l/m NO 0,00 h 0 W/m 4,1 km/h (1 Bft)
17.11.2014 21:00 3,6 C 99 % 1005,1 hPa 0,0 l/m N 0,00 h 0 W/m 1,2 km/h (1 Bft)
17.11.2014 22:00 3,7 C 99 % 1005,0 hPa 0,0 l/m NO 0,00 h 0 W/m 2,8 km/h (1 Bft)
17.11.2014 23:00 3,7 C 99 % 1005,0 hPa 0,0 l/m N 0,00 h 0 W/m 1,3 km/h (1 Bft)
18.11.2014 00:00 3,7 C 99 % 1005,1 hPa 0,0 l/m NO 0,00 h 0 W/m 3,2 km/h (1 Bft)
18.11.2014 01:00 3,8 C 99 % 1005,2 hPa 0,0 l/m NO 0,00 h 0 W/m 2,7 km/h (1 Bft)
18.11.2014 02:00 4,0 C 99 % 1005,0 hPa 0,0 l/m N-NO 0,00 h 0 W/m 5,3 km/h (1 Bft)
18.11.2014 03:00 4,1 C 99 % 1004,8 hPa 0,4 l/m N-NW 0,00 h 0 W/m 6,7 km/h (2 Bft)
18.11.2014 04:00 4,4 C 100 % 1005,0 hPa 0,8 l/m W-NW 0,00 h 0 W/m 11,7 km/h (2 Bft)
18.11.2014 05:00 4,8 C 100 % 1005,3 hPa 0,4 l/m W-NW 0,00 h 0 W/m 6,3 km/h (2 Bft)
18.11.2014 06:00 4,8 C 100 % 1005,5 hPa 0,4 l/m W-NW 0,00 h 0 W/m 2,8 km/h (1 Bft)
18.11.2014 07:00 4,9 C 100 % 1005,7 hPa 0,4 l/m W-NW 0,00 h 0 W/m 5,3 km/h (1 Bft)
18.11.2014 08:00 5,2 C 100 % 1006,3 hPa 0,4 l/m W-NW 0,00 h 9 W/m 6,4 km/h (2 Bft)
18.11.2014 09:00 5,4 C 100 % 1006,6 hPa 0,8 l/m W-NW 0,00 h 25 W/m 7,5 km/h (2 Bft)
18.11.2014 10:00 5,6 C 100 % 1006,9 hPa 0,8 l/m W-NW 0,00 h 42 W/m 8,6 km/h (2 Bft)
18.11.2014 11:00 5,9 C 100 % 1007,1 hPa 0,4 l/m W 0,00 h 62 W/m 10,1 km/h (2 Bft)
18.11.2014 12:00 6,2 C 100 % 1007,0 hPa 0,0 l/m W 0,00 h 70 W/m 9,7 km/h (2 Bft)
18.11.2014 13:00 6,4 C 99 % 1007,2 hPa 0,2 l/m W 0,00 h 52 W/m 12,0 km/h (2 Bft)
18.11.2014 14:00 6,4 C 99 % 1007,5 hPa 0,0 l/m W 0,00 h 44 W/m 9,1 km/h (2 Bft)
18.11.2014 15:00 6,7 C 98 % 1007,5 hPa 0,0 l/m W-SW 0,17 h 46 W/m 7,5 km/h (2 Bft)
18.11.2014 16:00 6,6 C 97 % 1007,8 hPa 0,2 l/m W-SW 0,25 h 19 W/m 2,7 km/h (1 Bft)
18.11.2014 17:00 6,1 C 97 % 1008,1 hPa 0,0 l/m W-SW 0,00 h 0 W/m 6,2 km/h (2 Bft)
18.11.2014 18:00 5,8 C 96 % 1008,6 hPa 0,0 l/m W-SW 0,00 h 0 W/m 13,3 km/h (3 Bft)
18.11.2014 19:00 5,5 C 95 % 1009,0 hPa 0,0 l/m W-SW 0,00 h 0 W/m 12,8 km/h (3 Bft)
18.11.2014 20:00 5,6 C 96 % 1009,4 hPa 0,0 l/m W-SW 0,00 h 0 W/m 13,8 km/h (3 Bft)
18.11.2014 21:00 5,7 C 96 % 1010,0 hPa 0,0 l/m W-SW 0,00 h 0 W/m 8,3 km/h (2 Bft)
18.11.2014 22:00 5,7 C 96 % 1010,3 hPa 0,0 l/m W-SW 0,00 h 0 W/m 9,4 km/h (2 Bft)
18.11.2014 23:00 5,6 C 97 % 1010,4 hPa 0,0 l/m W-SW 0,00 h 0 W/m 10,5 km/h (2 Bft)
19.11.2014 00:00 5,5 C 97 % 1010,7 hPa 0,0 l/m W-SW 0,00 h 0 W/m 10,3 km/h (2 Bft)
19.11.2014 01:00 5,6 C 96 % 1011,1 hPa 0,0 l/m W 0,00 h 0 W/m 11,3 km/h (2 Bft)
19.11.2014 02:00 5,6 C 96 % 1011,8 hPa 0,0 l/m W 0,00 h 0 W/m 11,7 km/h (2 Bft)
19.11.2014 03:00 5,4 C 96 % 1012,4 hPa 0,2 l/m W 0,00 h 0 W/m 8,4 km/h (2 Bft)
19.11.2014 04:00 5,3 C 96 % 1013,1 hPa 1,0 l/m W-SW 0,00 h 0 W/m 8,0 km/h (2 Bft)
19.11.2014 05:00 5,2 C 97 % 1013,7 hPa 1,0 l/m W-SW 0,00 h 0 W/m 8,4 km/h (2 Bft)
19.11.2014 06:00 5,2 C 97 % 1014,4 hPa 0,2 l/m W-SW 0,00 h 0 W/m 10,6 km/h (2 Bft)
19.11.2014 07:00 5,2 C 97 % 1015,4 hPa 0,2 l/m W-SW 0,00 h 5 W/m 11,6 km/h (2 Bft)
19.11.2014 08:00 5,3 C 98 % 1016,4 hPa 0,2 l/m W-SW 0,00 h 11 W/m 9,8 km/h (2 Bft)
19.11.2014 09:00 5,5 C 98 % 1017,4 hPa 0,0 l/m N 0,00 h 24 W/m 2,4 km/h (1 Bft)
19.11.2014 10:00 5,8 C 98 % 1018,3 hPa 0,2 l/m SW 0,00 h 38 W/m 4,0 km/h (1 Bft)
19.11.2014 11:00 6,2 C 98 % 1018,9 hPa 0,2 l/m SW 0,00 h 43 W/m 5,5 km/h (1 Bft)
19.11.2014 12:00 6,7 C 98 % 1019,1 hPa 0,0 l/m SW 0,00 h 70 W/m 5,1 km/h (1 Bft)
19.11.2014 13:00 7,1 C 98 % 1019,4 hPa 0,0 l/m SW 0,00 h 74 W/m 3,5 km/h (1 Bft)
19.11.2014 14:00 7,3 C 97 % 1019,9 hPa 0,0 l/m SW 0,00 h 73 W/m 1,5 km/h (1 Bft)
19.11.2014 15:00 7,6 C 95 % 1020,4 hPa 0,0 l/m N 0,00 h 31 W/m 0,0 km/h (0 Bft)
19.11.2014 16:00 7,6 C 95 % 1021,1 hPa 0,0 l/m N 0,00 h 5 W/m 0,0 km/h (0 Bft)
19.11.2014 17:00 6,9 C 94 % 1021,4 hPa 0,0 l/m N 0,00 h 0 W/m 0,0 km/h (0 Bft)
19.11.2014 18:00 5,5 C 93 % 1022,0 hPa 0,0 l/m N 0,00 h 0 W/m 0,0 km/h (0 Bft)
19.11.2014 19:00 4,7 C 94 % 1022,6 hPa 0,0 l/m N 0,00 h 0 W/m 0,0 km/h (0 Bft)
19.11.2014 20:00 3,8 C 94 % 1023,0 hPa 0,0 l/m N 0,00 h 0 W/m 0,0 km/h (0 Bft)
19.11.2014 21:00 3,1 C 95 % 1023,5 hPa 0,0 l/m N 0,00 h 0 W/m 0,0 km/h (0 Bft)
19.11.2014 22:00 2,5 C 95 % 1023,8 hPa 0,0 l/m N 0,00 h 0 W/m 0,0 km/h (0 Bft)
19.11.2014 23:00 1,9 C 95 % 1024,0 hPa 0,0 l/m N 0,00 h 0 W/m 0,0 km/h (0 Bft)
20.11.2014 00:00 1,4 C 95 % 1023,9 hPa 0,0 l/m SW 0,00 h 0 W/m 2,7 km/h (1 Bft)
20.11.2014 01:00 1,0 C 96 % 1023,9 hPa 0,0 l/m SW 0,00 h 0 W/m 4,3 km/h (1 Bft)
20.11.2014 02:00 0,8 C 97 % 1024,1 hPa 0,0 l/m W-SW 0,00 h 0 W/m 4,9 km/h (1 Bft)
20.11.2014 03:00 1,2 C 98 % 1024,3 hPa 0,0 l/m W-SW 0,00 h 0 W/m 1,9 km/h (1 Bft)
20.11.2014 04:00 1,2 C 98 % 1024,5 hPa 0,0 l/m N 0,00 h 0 W/m 1,6 km/h (1 Bft)
20.11.2014 05:00 0,9 C 98 % 1024,3 hPa 0,0 l/m N 0,00 h 0 W/m 1,9 km/h (1 Bft)
20.11.2014 06:00 0,6 C 98 % 1024,5 hPa 0,2 l/m N 0,00 h 0 W/m 1,6 km/h (1 Bft)
20.11.2014 07:00 0,7 C 98 % 1024,8 hPa 0,0 l/m W-SW 0,00 h 8 W/m 1,1 km/h (0 Bft)
20.11.2014 08:00 0,7 C 98 % 1025,0 hPa 0,0 l/m W-SW 0,00 h 26 W/m 3,7 km/h (1 Bft)
20.11.2014 09:00 1,1 C 99 % 1024,9 hPa 0,0 l/m W-SW 0,00 h 66 W/m 5,9 km/h (2 Bft)
20.11.2014 10:00 1,9 C 99 % 1025,1 hPa 0,0 l/m W-NW 0,00 h 78 W/m 6,8 km/h (2 Bft)
20.11.2014 11:00 2,4 C 99 % 1025,1 hPa 0,0 l/m N-NO 0,00 h 91 W/m 9,3 km/h (2 Bft)
20.11.2014 12:00 2,7 C 99 % 1024,8 hPa 0,0 l/m N-NO 0,00 h 73 W/m 8,7 km/h (2 Bft)
20.11.2014 13:00 3,0 C 99 % 1024,8 hPa 0,0 l/m NO 0,00 h 60 W/m 9,8 km/h (2 Bft)
20.11.2014 14:00 3,7 C 98 % 1024,5 hPa 0,0 l/m O-NO 0,00 h 28 W/m 8,9 km/h (2 Bft)
20.11.2014 15:00 4,2 C 98 % 1024,4 hPa 0,0 l/m O-NO 0,00 h 28 W/m 6,9 km/h (2 Bft)
20.11.2014 16:00 4,5 C 98 % 1024,2 hPa 0,0 l/m O-NO 0,00 h 10 W/m 8,6 km/h (2 Bft)
20.11.2014 17:00 4,6 C 97 % 1024,1 hPa 0,0 l/m O-NO 0,00 h 0 W/m 7,2 km/h (2 Bft)
20.11.2014 18:00 4,7 C 97 % 1024,1 hPa 0,0 l/m O-NO 0,00 h 0 W/m 4,0 km/h (1 Bft)
20.11.2014 19:00 5,1 C 96 % 1024,3 hPa 0,0 l/m O-NO 0,00 h 0 W/m 6,7 km/h (2 Bft)
20.11.2014 20:00 4,9 C 95 % 1024,6 hPa 0,0 l/m O-NO 0,00 h 0 W/m 8,4 km/h (2 Bft)
20.11.2014 21:00 4,6 C 94 % 1024,7 hPa 0,0 l/m O 0,00 h 0 W/m 8,7 km/h (2 Bft)
20.11.2014 22:00 4,3 C 95 % 1024,4 hPa 0,0 l/m O 0,00 h 0 W/m 3,5 km/h (1 Bft)
20.11.2014 23:00 4,4 C 96 % 1024,0 hPa 0,0 l/m O 0,00 h 0 W/m 2,3 km/h (1 Bft)
21.11.2014 00:00 4,4 C 96 % 1023,7 hPa 0,0 l/m O 0,00 h 0 W/m 3,9 km/h (1 Bft)
21.11.2014 01:00 4,4 C 96 % 1023,6 hPa 0,0 l/m N 0,00 h 0 W/m 2,9 km/h (1 Bft)
21.11.2014 02:00 4,3 C 96 % 1023,3 hPa 0,0 l/m O 0,00 h 0 W/m 2,8 km/h (1 Bft)
21.11.2014 03:00 4,3 C 97 % 1023,1 hPa 0,0 l/m O 0,00 h 0 W/m 3,5 km/h (1 Bft)
21.11.2014 04:00 4,1 C 97 % 1022,8 hPa 0,0 l/m O 0,00 h 0 W/m 5,5 km/h (1 Bft)
21.11.2014 05:00 3,9 C 97 % 1022,8 hPa 0,0 l/m O 0,00 h 0 W/m 4,8 km/h (1 Bft)
21.11.2014 06:00 3,8 C 97 % 1022,5 hPa 0,0 l/m O 0,00 h 0 W/m 2,7 km/h (1 Bft)
21.11.2014 07:00 3,8 C 98 % 1022,3 hPa 0,0 l/m O 0,00 h 6 W/m 4,5 km/h (1 Bft)
21.11.2014 08:00 3,8 C 98 % 1022,3 hPa 0,0 l/m N 0,00 h 21 W/m 1,7 km/h (1 Bft)
21.11.2014 09:00 4,1 C 98 % 1022,0 hPa 0,0 l/m O 0,00 h 40 W/m 2,7 km/h (1 Bft)
21.11.2014 10:00 4,9 C 98 % 1022,0 hPa 0,0 l/m O 0,00 h 118 W/m 2,8 km/h (1 Bft)
21.11.2014 11:00 5,8 C 95 % 1021,5 hPa 0,0 l/m O 0,00 h 103 W/m 3,3 km/h (1 Bft)
21.11.2014 12:00 6,5 C 93 % 1021,2 hPa 0,0 l/m O 0,00 h 114 W/m 3,9 km/h (1 Bft)
21.11.2014 13:00 6,7 C 92 % 1021,0 hPa 0,0 l/m O 0,00 h 80 W/m 2,7 km/h (1 Bft)
21.11.2014 14:00 7,0 C 92 % 1020,7 hPa 0,0 l/m N 0,00 h 81 W/m 1,9 km/h (1 Bft)
21.11.2014 15:00 7,1 C 92 % 1020,7 hPa 0,0 l/m N 0,00 h 36 W/m 1,6 km/h (1 Bft)
21.11.2014 16:00 7,0 C 92 % 1020,6 hPa 0,0 l/m O 0,00 h 10 W/m 2,4 km/h (1 Bft)
21.11.2014 17:00 6,7 C 93 % 1020,4 hPa 0,0 l/m N 0,00 h 0 W/m 0,4 km/h (0 Bft)
21.11.2014 18:00 6,3 C 94 % 1020,5 hPa 0,0 l/m N 0,00 h 0 W/m 2,1 km/h (1 Bft)
21.11.2014 19:00 6,0 C 95 % 1020,4 hPa 0,0 l/m N 0,00 h 0 W/m 1,9 km/h (1 Bft)
21.11.2014 20:00 5,8 C 96 % 1020,5 hPa 0,2 l/m O 0,00 h 0 W/m 2,4 km/h (1 Bft)
21.11.2014 21:00 5,6 C 96 % 1020,6 hPa 0,0 l/m N 0,00 h 0 W/m 1,7 km/h (1 Bft)
21.11.2014 22:00 5,3 C 97 % 1020,6 hPa 0,0 l/m N 0,00 h 0 W/m 2,0 km/h (1 Bft)
21.11.2014 23:00 5,1 C 97 % 1020,4 hPa 0,0 l/m N 0,00 h 0 W/m 1,1 km/h (0 Bft)
22.11.2014 00:00 5,0 C 97 % 1020,1 hPa 0,0 l/m O 0,00 h 0 W/m 0,4 km/h (0 Bft)
22.11.2014 01:00 4,8 C 97 % 1019,8 hPa 0,0 l/m N 0,00 h 0 W/m 1,1 km/h (0 Bft)
22.11.2014 02:00 4,2 C 97 % 1019,8 hPa 0,0 l/m N 0,00 h 0 W/m 0,4 km/h (0 Bft)
22.11.2014 03:00 3,8 C 98 % 1020,1 hPa 0,0 l/m N 0,00 h 0 W/m 0,0 km/h (0 Bft)
22.11.2014 04:00 3,9 C 98 % 1020,3 hPa 0,0 l/m N 0,00 h 0 W/m 0,0 km/h (0 Bft)
22.11.2014 05:00 4,0 C 98 % 1020,5 hPa 0,0 l/m N 0,00 h 0 W/m 0,0 km/h (0 Bft)
22.11.2014 06:00 4,1 C 98 % 1020,5 hPa 0,0 l/m N 0,00 h 0 W/m 0,0 km/h (0 Bft)
22.11.2014 07:00 4,1 C 98 % 1020,9 hPa 0,0 l/m N 0,00 h 5 W/m 0,3 km/h (0 Bft)
22.11.2014 08:00 4,3 C 99 % 1021,4 hPa 0,0 l/m O 0,00 h 24 W/m 1,1 km/h (0 Bft)
22.11.2014 09:00 4,5 C 99 % 1021,5 hPa 0,0 l/m O 0,00 h 58 W/m 2,3 km/h (1 Bft)
22.11.2014 10:00 5,3 C 99 % 1021,4 hPa 0,0 l/m N 0,42 h 162 W/m 0,4 km/h (0 Bft)
22.11.2014 11:00 8,0 C 97 % 1021,0 hPa 0,0 l/m O 1,00 h 320 W/m 3,6 km/h (1 Bft)
22.11.2014 12:00 10,8 C 83 % 1020,7 hPa 0,0 l/m O 1,00 h 330 W/m 4,3 km/h (1 Bft)
22.11.2014 13:00 11,9 C 78 % 1020,1 hPa 0,0 l/m O 1,00 h 309 W/m 5,6 km/h (1 Bft)
22.11.2014 14:00 12,6 C 75 % 1019,9 hPa 0,0 l/m N 0,83 h 168 W/m 1,3 km/h (1 Bft)
22.11.2014 15:00 12,7 C 77 % 1020,0 hPa 0,0 l/m N 0,00 h 56 W/m 0,0 km/h (0 Bft)
22.11.2014 16:00 10,8 C 81 % 1020,2 hPa 0,0 l/m N 0,08 h 14 W/m 0,0 km/h (0 Bft)
22.11.2014 17:00 8,8 C 86 % 1020,3 hPa 0,0 l/m O 0,00 h 0 W/m 0,7 km/h (0 Bft)
22.11.2014 18:00 7,6 C 89 % 1020,4 hPa 0,0 l/m O 0,00 h 0 W/m 2,5 km/h (1 Bft)
22.11.2014 19:00 7,0 C 92 % 1020,5 hPa 0,0 l/m O 0,00 h 0 W/m 3,6 km/h (1 Bft)
22.11.2014 20:00 6,6 C 94 % 1020,8 hPa 0,0 l/m O-NO 0,00 h 0 W/m 5,5 km/h (1 Bft)
22.11.2014 21:00 5,8 C 95 % 1021,3 hPa 0,0 l/m O-NO 0,00 h 0 W/m 4,4 km/h (1 Bft)
22.11.2014 22:00 5,3 C 96 % 1021,6 hPa 0,0 l/m O-NO 0,00 h 0 W/m 4,0 km/h (1 Bft)
22.11.2014 23:00 5,1 C 97 % 1021,7 hPa 0,0 l/m N 0,00 h 0 W/m 3,5 km/h (1 Bft)
23.11.2014 00:00 5,0 C 97 % 1021,5 hPa 0,0 l/m N 0,00 h 0 W/m 1,2 km/h (1 Bft)
23.11.2014 01:00 4,8 C 98 % 1021,6 hPa 0,0 l/m O-NO 0,00 h 0 W/m 1,7 km/h (1 Bft)
23.11.2014 02:00 4,7 C 98 % 1021,7 hPa 0,0 l/m N 0,00 h 0 W/m 0,9 km/h (0 Bft)
23.11.2014 03:00 4,5 C 98 % 1021,6 hPa 0,0 l/m N 0,00 h 0 W/m 0,4 km/h (0 Bft)
23.11.2014 04:00 4,3 C 98 % 1021,4 hPa 0,0 l/m N 0,00 h 0 W/m 0,5 km/h (0 Bft)
23.11.2014 05:00 4,1 C 98 % 1021,6 hPa 0,0 l/m N 0,00 h 0 W/m 2,1 km/h (1 Bft)
23.11.2014 06:00 3,9 C 98 % 1021,9 hPa 0,0 l/m N 0,00 h 0 W/m 0,9 km/h (0 Bft)
23.11.2014 07:00 3,8 C 99 % 1022,4 hPa 0,2 l/m N 0,00 h 5 W/m 0,9 km/h (0 Bft)
23.11.2014 08:00 3,6 C 99 % 1022,6 hPa 0,0 l/m N 0,00 h 14 W/m 0,5 km/h (0 Bft)
23.11.2014 09:00 3,5 C 99 % 1022,9 hPa 0,0 l/m N 0,00 h 39 W/m 0,8 km/h (0 Bft)
23.11.2014 10:00 4,1 C 99 % 1023,2 hPa 0,0 l/m N 0,00 h 76 W/m 0,4 km/h (0 Bft)
23.11.2014 11:00 4,7 C 99 % 1022,6 hPa 0,0 l/m N 0,00 h 105 W/m 1,2 km/h (1 Bft)
23.11.2014 12:00 5,4 C 99 % 1022,1 hPa 0,0 l/m O-NO 0,00 h 124 W/m 3,1 km/h (1 Bft)
23.11.2014 13:00 6,1 C 100 % 1021,6 hPa 0,0 l/m O-NO 0,08 h 131 W/m 4,1 km/h (1 Bft)
23.11.2014 14:00 6,3 C 99 % 1021,4 hPa 0,0 l/m O-NO 0,00 h 70 W/m 5,3 km/h (1 Bft)
23.11.2014 15:00 6,3 C 99 % 1021,1 hPa 0,0 l/m O-NO 0,00 h 23 W/m 2,5 km/h (1 Bft)
23.11.2014 16:00 6,0 C 99 % 1020,9 hPa 0,0 l/m O-NO 0,00 h 6 W/m 1,5 km/h (1 Bft)
23.11.2014 17:00 5,4 C 99 % 1021,0 hPa 0,0 l/m O-NO 0,00 h 0 W/m 2,1 km/h (1 Bft)
23.11.2014 18:00 5,1 C 99 % 1021,2 hPa 0,0 l/m O-NO 0,00 h 0 W/m 3,5 km/h (1 Bft)
23.11.2014 19:00 4,6 C 99 % 1021,4 hPa 0,0 l/m O-NO 0,00 h 0 W/m 0,8 km/h (0 Bft)
23.11.2014 20:00 4,2 C 99 % 1021,4 hPa 0,0 l/m O-NO 0,00 h 0 W/m 0,9 km/h (0 Bft)
23.11.2014 21:00 4,0 C 99 % 1021,6 hPa 0,0 l/m N 0,00 h 0 W/m 0,0 km/h (0 Bft)
23.11.2014 22:00 4,1 C 99 % 1021,4 hPa 0,0 l/m N 0,00 h 0 W/m 0,0 km/h (0 Bft)
23.11.2014 23:00 4,3 C 99 % 1021,6 hPa 0,0 l/m N 0,00 h 0 W/m 0,0 km/h (0 Bft)
Min-Datum _ 20.11.14 22.11.14 17.11.14 - - - - 17.11.14
_ Min-Zeit 06:20 14:10 03:05 - - - - 00:30
Minimum _ 0,6 C 75 % 1003,5 hPa - - - - 0,0 km/h (0 Bft)
Max-Datum _ 22.11.14 18.11.14 20.11.14 19.11.14 - 18.11.14 22.11.14 18.11.14
_ Max-Zeit 15:10 04:10 11:40 04:00 - 15:30 12:10 18:50
Maximum _ 12,9 C 100 % 1025,3 hPa 1,0 l/m - 0,08 h 343 W/m 17,7 km/h
W-SW (3 Bft)
Durchschnitt _ 4,8 C 97 % 1016,9 hPa #9,2 l/m W-SW #4:50 h 59 W/m 3,9 km/h (1 Bft)